GOES 15 [B]

Last updated on July 6, 2021, 3:23 p.m. UTC

1 36411U 10008A   21186.69319330  .00000063  00000-0  00000-0 0  9995
2 36411   0.1658 125.3001 0003745 295.4643 344.5655  1.00280050 41554
UTC
Height (km)
Latitude
Longitude
Inclination
Orbital Period
UTC large
Height (km)
Speed (km/s)
/
Latitude / Longitude
Inclination (degrees)
Orbital Period (minutes)
Azimuth
Elevation
Range (km)
Doppler Factor
iOS Compass Heading
iOS Angle